TimeEST,TemperatureF,Dew PointF,Humidity,Sea Level PressureIn,VisibilityMPH,Wind Direction,Wind SpeedMPH,Gust SpeedMPH,PrecipitationIn,Events,Conditions,WindDirDegrees,DateUTC
12:56 AM,23.0,21.0,92,30.50,10.0,Calm,Calm,-,N/A,,Clear,0,2012-12-13 05:56:00
1:56 AM,21.0,20.1,96,30.49,8.0,Calm,Calm,-,N/A,,Clear,0,2012-12-13 06:56:00
2:56 AM,20.1,18.1,92,30.49,7.0,Calm,Calm,-,N/A,,Clear,0,2012-12-13 07:56:00
3:56 AM,20.1,19.0,96,30.49,8.0,Calm,Calm,-,N/A,,Clear,0,2012-12-13 08:56:00
4:56 AM,20.1,18.1,92,30.50,7.0,Calm,Calm,-,N/A,,Clear,0,2012-12-13 09:56:00
5:56 AM,20.1,19.0,96,30.52,8.0,Calm,Calm,-,N/A,,Clear,0,2012-12-13 10:56:00
6:56 AM,19.0,18.1,96,30.53,9.0,Calm,Calm,-,N/A,,Clear,0,2012-12-13 11:56:00
7:56 AM,18.1,16.2,92,30.53,7.0,Calm,Calm,-,N/A,,Clear,0,2012-12-13 12:56:00
8:56 AM,22.1,20.1,92,30.53,7.0,Calm,Calm,-,N/A,,Clear,0,2012-12-13 13:56:00
9:56 AM,27.1,24.1,88,30.52,8.0,Calm,Calm,-,N/A,,Clear,0,2012-12-13 14:56:00
10:56 AM,32.0,27.1,82,30.51,10.0,Calm,Calm,-,N/A,,Clear,0,2012-12-13 15:56:00
11:56 AM,37.9,23.0,55,30.46,10.0,Variable,5.8,-,N/A,,Clear,0,2012-12-13 16:56:00
12:56 PM,41.0,24.1,51,30.44,10.0,SE,6.9,-,N/A,,Clear,140,2012-12-13 17:56:00
1:56 PM,43.0,22.1,44,30.43,10.0,SW,4.6,-,N/A,,Clear,230,2012-12-13 18:56:00
2:56 PM,43.0,19.0,38,30.41,10.0,Calm,Calm,-,N/A,,Clear,0,2012-12-13 19:56:00
3:56 PM,43.0,19.0,38,30.42,10.0,Calm,Calm,-,N/A,,Clear,0,2012-12-13 20:56:00
4:56 PM,38.8,20.1,47,30.40,10.0,Calm,Calm,-,N/A,,Clear,0,2012-12-13 21:56:00
7:56 PM,31.1,20.1,64,30.39,10.0,Calm,Calm,-,N/A,,Clear,0,2012-12-14 00:56:00
8:56 PM,26.1,21.0,81,30.39,10.0,Calm,Calm,-,N/A,,Clear,0,2012-12-14 01:56:00
9:56 PM,26.1,20.1,78,30.38,10.0,Calm,Calm,-,N/A,,Clear,0,2012-12-14 02:56:00
10:56 PM,26.1,21.0,81,30.36,10.0,Calm,Calm,-,N/A,,Clear,0,2012-12-14 03:56:00
11:56 PM,29.1,21.0,72,30.35,10.0,Calm,Calm,-,N/A,,Clear,0,2012-12-14 04:56:00